Tracking 25963 objects as of 12-Aug-2022
HD Live streaming from Space Station
objects crossing your sky now

SPACEBEE-7

Track SPACEBEE-7 now!
10-day predictions


NORAD ID: 43816
Int'l Code: 2018-099BL
Perigee: 570.9 km
Apogee: 590.1 km
Inclination: 97.6 °
Period: 96.1 minutes
Semi major axis: 6951 km
RCS: Unknown
Launch date: December 3, 2018
Source: United States (US)
Launch site: AIR FORCE WESTERN TEST RANGE (AFWTR)
aabbcc
Your satellite tracking list
Your tracking list is empty




NASA's NSSDC Master Catalog

Two Line Element Set (TLE):
1 43816U 18099BL  22223.11802373  .00002512  00000-0  21769-3 0  9993
2 43816  97.6227 290.0364 0013799  74.2838 285.9906 14.97917266200836
Source of the keplerian elements: AFSPC